Weather History for Lander, WY

Change the Weather History Date:

Thursday, October 4, 2012

  Actual Average Record
Temperature  
Mean Temperature 39 °F 50 °F  
Max Temperature 50 °F 63 °F 85 °F (1963)
Min Temperature 27 °F 37 °F 18 °F (1891)
Degree Days  
Heating Degree Days 26 15  
Month to date heating degree days 51 57  
Since 1 July heating degree days 138 316  
Cooling Degree Days 0 0  
Month to date cooling degree days 0 0  
Year to date cooling degree days 779 472  
Moisture  
Dew Point 20 °F    
Average Humidity 49    
Maximum Humidity 69    
Minimum Humidity 29    
Precipitation  
Precipitation T in 0.05 in 1.56 in (2009)
Month to date precipitation T 0.20  
Year to date precipitation 5.03 10.13  
Snow  
Snow 0.00 in 0.30 in - ()
Month to date snowfall 0.0 1.0  
Since 1 July snowfall 0.0 3.7  
Since 1 September snowfall 0.0 3.7  
Snow Depth 0.00 in    
Sea Level Pressure  
Sea Level Pressure 30.27 in    
Wind  
Wind Speed 5 mph (NNE)    
Max Wind Speed 10 mph    
Max Gust Speed 16 mph    
Visibility 10 miles    
Events      
T = Trace of Precipitation, MM = Missing Value Source: NWS Daily Summary

Daily Weather History Graph

Daily Weather History Graph

Search for Another Location

Airport:

Trip Planner

Search our weather history database for the weather conditions in past years. The results will help you decide how hot, cold, wet, or windy it might be!

Date:

Astronomy

Oct. 04, 2012 Rise Set
Actual Time 7:16 AM MDT 6:49 PM MDT
Civil Twilight 6:47 AM MDT 7:18 PM MDT
Nautical Twilight 6:15 AM MDT 7:50 PM MDT
Astronomical Twilight 5:42 AM MDT 8:23 PM MDT
Moon 9:21 PM MDT (10/4) 11:42 AM MDT (10/4)
Length of Visible Light 12h 30m
Length of Day
11h 33m
Waning Gibbous, 81% of the Moon is Illuminated
Oct 4
Waning Gibbous
Oct 8
Last Quarter
Oct 15
New
Oct 21
First Quarter
Oct 29
Full

Hourly Weather History & Observations

Time (MDT) Temp. Windchill Dew Point Humidity Pressure Visibility Wind Dir Wind Speed Gust Speed Precip Events Conditions
12:53 AM 33.1 °F - 21.0 °F 61% 30.35 in 10.0 mi Calm Calm - N/A   Partly Cloudy
1:53 AM 32.0 °F - 19.9 °F 61% 30.36 in 10.0 mi Calm Calm - N/A   Mostly Cloudy
2:53 AM 30.9 °F - 21.0 °F 67% 30.36 in 10.0 mi Calm Calm - N/A   Overcast
3:53 AM 30.9 °F - 21.0 °F 67% 30.35 in 10.0 mi Calm Calm - N/A   Overcast
4:53 AM 28.0 °F 22.8 °F 19.9 °F 72% 30.35 in 10.0 mi SE 4.6 mph - N/A   Clear
5:53 AM 28.0 °F 21.7 °F 19.9 °F 72% 30.36 in 10.0 mi SSE 5.8 mph - 0.00 in   Clear
6:53 AM 28.9 °F - 19.9 °F 69% 30.35 in 10.0 mi Calm Calm - N/A   Mostly Cloudy
7:53 AM 27.0 °F 23.0 °F 18.0 °F 69% 30.37 in 10.0 mi WNW 3.5 mph - N/A   Clear
8:53 AM 30.0 °F 26.5 °F 19.9 °F 66% 30.35 in 10.0 mi NW 3.5 mph - N/A   Clear
9:53 AM 36.0 °F 33.3 °F 23.0 °F 59% 30.32 in 10.0 mi Variable 3.5 mph - N/A   Clear
10:53 AM 39.9 °F 35.1 °F 21.0 °F 47% 30.31 in 10.0 mi East 6.9 mph - N/A   Clear
11:53 AM 42.1 °F 38.4 °F 19.9 °F 41% 30.27 in 10.0 mi Variable 5.8 mph - N/A   Clear
12:53 PM 45.0 °F 40.1 °F 19.9 °F 37% 30.25 in 10.0 mi SSE 9.2 mph - N/A   Clear
1:53 PM 46.9 °F - 19.9 °F 34% 30.20 in 10.0 mi East 8.1 mph 16.1 mph 0.00 in   Scattered Clouds
2:53 PM 48.0 °F - 19.9 °F 33% 30.17 in 10.0 mi SE 8.1 mph - N/A   Clear
3:53 PM 50.0 °F - 19.9 °F 31% 30.15 in 10.0 mi NNE 6.9 mph - N/A   Clear
4:53 PM 48.9 °F - 19.9 °F 32% 30.16 in 10.0 mi North 9.2 mph - N/A   Clear
5:53 PM 46.0 °F 41.0 °F 19.0 °F 34% 30.18 in 10.0 mi NNE 10.4 mph - N/A   Clear
6:53 PM 44.1 °F 40.8 °F 19.0 °F 37% 30.19 in 10.0 mi North 5.8 mph - N/A   Clear
7:53 PM 43.0 °F 41.3 °F 19.9 °F 40% 30.21 in 10.0 mi WNW 3.5 mph - N/A   Clear
8:53 PM 42.1 °F 38.4 °F 19.0 °F 40% 30.22 in 10.0 mi WNW 5.8 mph - N/A   Mostly Cloudy
9:53 PM 41.0 °F 35.8 °F 19.9 °F 43% 30.21 in 10.0 mi NNW 8.1 mph - N/A   Overcast
10:53 PM 39.9 °F 34.5 °F 19.0 °F 43% 30.22 in 10.0 mi North 8.1 mph - N/A   Overcast
11:53 PM 37.0 °F 31.0 °F 19.9 °F 50% 30.22 in 10.0 mi ENE 8.1 mph - N/A   Mostly Cloudy